Date String (YYYY-MM-DD hh:mm:ss) UTC,Instrument flags,Ambient pressure (hPa),Sample flow (lpm),Bypass flow (lpm),Sample temperature (°C),Ambient temperature (°C),ASC tube jacket temperature (°C),LED temperature (°C),Box temperature (°C),Sample RH (%),Span deviation,Mass concentration (μg/m³),Mass concentration (μg/m³),Mass concentration (μg/m³)
DateTimeUTC,F1_M11,P_M11,Q1_M11,Q2_M11,T1_M11,T2_M11,T3_M11,T4_M11,T5_M11,U1_M11,ZSPAN_M11,X0_M11,X2_M11,X1_M11
2023-03-01 21:00:00,,0816.2,5.00,0.00,22.6,21.1,00.0,31.5,24.0,15.9,0000.0,0007.07,0002.37,0001.62
2023-03-01 21:01:00,,0816.3,5.01,0.00,22.6,20.9,00.0,31.5,24.0,15.8,0000.0,0006.54,0002.40,0001.66
2023-03-01 21:02:00,,0816.2,5.00,0.00,22.5,20.8,00.0,31.4,23.9,15.8,0000.0,0006.73,0002.47,0001.68
2023-03-01 21:03:00,,0816.3,5.00,0.00,22.5,20.7,00.0,31.4,23.9,15.8,0000.0,0006.83,0002.49,0001.69
2023-03-01 21:04:00,,0816.3,4.98,0.00,22.4,20.5,00.0,31.4,23.9,15.9,0000.0,0006.30,0002.51,0001.70
2023-03-01 21:05:00,,0816.3,5.00,0.00,22.4,20.4,00.0,31.4,23.8,15.9,0000.0,0006.42,0002.60,0001.73
2023-03-01 21:06:00,,0816.3,4.99,0.00,22.4,20.5,00.0,31.3,23.8,15.8,0000.0,0006.54,0002.65,0001.75
2023-03-01 21:07:00,,0816.3,5.01,0.00,22.4,21.7,00.0,31.3,24.1,15.7,0000.0,0006.32,0002.62,0001.76
2023-03-01 21:08:00,,0816.3,5.00,0.00,22.6,22.8,00.0,31.3,24.4,15.7,0000.0,0005.83,0002.65,0001.77
2023-03-01 21:09:00,,0816.3,4.99,0.00,22.7,23.1,00.0,31.4,24.5,15.7,0000.0,0005.21,0002.68,0001.78
2023-03-01 21:10:00,,0816.3,4.99,0.00,22.7,22.5,00.0,31.4,24.4,15.6,0000.0,0005.36,0002.69,0001.77
2023-03-01 21:11:00,,0816.2,4.99,0.00,22.7,22.0,00.0,31.4,24.3,15.7,0000.0,0005.62,0002.72,0001.76
2023-03-01 21:12:00,,0816.2,4.98,0.00,22.6,21.6,00.0,31.4,24.2,15.9,0000.0,0005.72,0002.76,0001.75
2023-03-01 21:13:00,,0816.2,5.00,0.00,22.6,21.3,00.0,31.4,24.1,15.9,0000.0,0005.51,0002.69,0001.74
2023-03-01 21:14:00,,0816.2,4.99,0.00,22.6,21.1,00.0,31.4,24.0,15.9,0000.0,0005.77,0002.73,0001.75
2023-03-01 21:15:00,,0816.2,5.00,0.00,22.5,21.0,00.0,31.4,24.0,15.9,0000.0,0005.99,0002.81,0001.75
2023-03-01 21:16:00,,0816.3,4.99,0.00,22.5,20.8,00.0,31.4,24.0,16.0,0000.0,0005.98,0002.79,0001.74
2023-03-01 21:17:00,,0816.3,5.00,0.00,22.5,20.6,00.0,31.4,23.9,15.9,0000.0,0005.98,0002.79,0001.73
2023-03-01 21:18:00,,0816.3,5.00,0.00,22.4,20.5,00.0,31.3,23.8,15.8,0000.0,0006.10,0002.84,0001.71
2023-03-01 21:19:00,,0816.3,5.00,0.00,22.3,20.3,00.0,31.3,23.8,16.0,0000.0,0005.98,0002.80,0001.72
2023-03-01 21:20:00,,0816.3,5.00,0.00,22.3,20.3,00.0,31.3,23.7,16.1,0000.0,0005.85,0002.74,0001.72
2023-03-01 21:21:00,,0816.3,5.01,0.00,22.4,21.2,00.0,31.3,24.0,16.2,0000.0,0005.85,0002.73,0001.72
2023-03-01 21:22:00,,0816.3,5.01,0.00,22.5,22.6,00.0,31.2,24.3,16.0,0000.0,0005.57,0002.71,0001.72
2023-03-01 21:23:00,,0816.3,5.01,0.00,22.6,22.8,00.0,31.3,24.4,15.9,0000.0,0005.66,0002.69,0001.71
2023-03-01 21:24:00,,0816.3,5.01,0.00,22.6,22.3,00.0,31.3,24.3,15.7,0000.0,0005.75,0002.66,0001.70
2023-03-01 21:25:00,,0816.3,4.99,0.00,22.6,21.8,00.0,31.3,24.2,15.6,0000.0,0005.50,0002.62,0001.69
2023-03-01 21:26:00,,0816.3,5.00,0.00,22.5,21.4,00.0,31.3,24.0,15.6,0000.0,0005.32,0002.61,0001.69
2023-03-01 21:27:00,,0816.3,4.99,0.00,22.5,21.1,00.0,31.3,24.0,15.8,0000.0,0005.46,0002.58,0001.70
2023-03-01 21:28:00,,0816.2,5.00,0.00,22.4,20.9,00.0,31.3,23.9,15.7,0000.0,0005.56,0002.50,0001.71
2023-03-01 21:29:00,,0816.3,5.01,0.00,22.4,20.9,00.0,31.3,23.9,15.7,0000.0,0005.39,0002.43,0001.71
2023-03-01 21:30:00,,0816.3,5.00,0.00,22.4,20.8,00.0,31.3,23.9,15.7,0000.0,0005.45,0002.45,0001.69
2023-03-01 21:31:00,,0816.3,5.00,0.00,22.4,20.7,00.0,31.3,23.8,15.9,0000.0,0005.76,0002.47,0001.69
2023-03-01 21:32:00,,0816.3,5.00,0.00,22.3,20.6,00.0,31.3,23.8,16.0,0000.0,0005.63,0002.47,0001.68
2023-03-01 21:33:00,,0816.3,4.99,0.00,22.3,21.1,00.0,31.2,23.9,16.0,0000.0,0005.23,0002.41,0001.68
2023-03-01 21:34:00,,0816.3,5.00,0.00,22.5,22.2,00.0,31.2,24.2,16.0,0000.0,0004.95,0002.36,0001.69
2023-03-01 21:35:00,,0816.3,4.99,0.00,22.6,22.9,00.0,31.3,24.4,15.9,0000.0,0004.91,0002.37,0001.71
2023-03-01 21:36:00,,0816.2,5.02,0.00,22.6,22.5,00.0,31.3,24.3,15.8,0000.0,0005.94,0002.37,0001.71
2023-03-01 21:37:00,,0816.3,5.01,0.00,22.6,22.1,00.0,31.3,24.2,15.8,0000.0,0006.13,0002.33,0001.72
2023-03-01 21:38:00,,0816.3,5.00,0.00,22.6,21.8,00.0,31.3,24.2,15.8,0000.0,0006.47,0002.35,0001.72
2023-03-01 21:39:00,,0816.3,5.00,0.00,22.6,21.5,00.0,31.3,24.1,15.8,0000.0,0006.25,0002.38,0001.73
2023-03-01 21:40:00,,0816.3,5.00,0.00,22.6,21.4,00.0,31.3,24.1,15.8,0000.0,0006.37,0002.44,0001.76
2023-03-01 21:41:00,,0816.3,5.02,0.00,22.5,21.2,00.0,31.3,24.0,15.6,0000.0,0006.54,0002.52,0001.77
2023-03-01 21:42:00,,0816.3,4.99,0.00,22.5,21.0,00.0,31.3,24.0,15.3,0000.0,0006.36,0002.54,0001.77
2023-03-01 21:43:00,,0816.3,5.00,0.00,22.5,20.8,00.0,31.3,23.9,15.2,0000.0,0007.40,0002.57,0001.77
2023-03-01 21:44:00,,0816.3,5.01,0.00,22.4,20.7,00.0,31.3,23.9,15.2,0000.0,0008.04,0002.58,0001.77
2023-03-01 21:45:00,,0816.3,5.00,0.00,22.4,20.6,00.0,31.3,23.9,15.1,0000.0,0008.03,0002.58,0001.77
2023-03-01 21:46:00,,0816.3,5.01,0.00,22.4,20.6,00.0,31.3,23.8,15.0,0000.0,0008.67,0002.59,0001.76
2023-03-01 21:47:00,,0816.3,5.02,0.00,22.3,20.6,00.0,31.3,23.8,14.9,0000.0,0008.26,0002.56,0001.74
2023-03-01 21:48:00,,0816.3,5.00,0.00,22.4,21.2,00.0,31.2,24.0,14.8,0000.0,0008.11,0002.58,0001.73
2023-03-01 21:49:00,,0816.2,5.00,0.00,22.5,22.4,00.0,31.2,24.3,14.7,0000.0,0008.38,0002.60,0001.72
2023-03-01 21:50:00,,0816.3,5.00,0.00,22.6,22.9,00.0,31.3,24.5,14.7,0000.0,0008.42,0002.61,0001.71
2023-03-01 21:51:00,,0816.3,4.98,0.00,22.6,22.5,00.0,31.3,24.4,14.8,0000.0,0008.46,0002.61,0001.69
2023-03-01 21:52:00,,0816.3,4.98,0.00,22.6,22.1,00.0,31.3,24.3,14.7,0000.0,0008.40,0002.56,0001.68
2023-03-01 21:53:00,,0816.3,5.01,0.00,22.6,21.9,00.0,31.3,24.3,14.9,0000.0,0008.36,0002.51,0001.69
2023-03-01 21:54:00,,0816.3,5.00,0.00,22.6,21.6,00.0,31.3,24.3,15.0,0000.0,0007.53,0002.47,0001.71
2023-03-01 21:55:00,,0816.3,4.99,0.00,22.6,21.5,00.0,31.3,24.2,14.9,0000.0,0007.19,0002.53,0001.74
2023-03-01 21:56:00,,0816.3,4.99,0.00,22.6,21.4,00.0,31.3,24.2,14.9,0000.0,0007.40,0002.63,0001.74
2023-03-01 21:57:00,,0816.3,4.99,0.00,22.6,21.3,00.0,31.3,24.1,15.0,0000.0,0006.41,0002.65,0001.75
2023-03-01 21:58:00,,0816.3,5.01,0.00,22.6,21.2,00.0,31.3,24.1,15.0,0000.0,0006.43,0002.68,0001.77
2023-03-01 21:59:00,,0816.3,5.01,0.00,22.6,21.2,00.0,31.3,24.1,14.8,0000.0,0007.01,0002.67,0001.78
